| time (UTC) | temp F | wind direction | speed knots | gust knots | rain 1hr in | rain 24hr in | rain mn in | humidity % | barometer mb |
| 20260508144935 | 45 | 68 | 3.5 | 6.1 | 0.00 | 0.00 | 0.00 | 72 | 1007.3 |
| 20260508144706 | 45 | 62 | 4.3 | 5.2 | 0.00 | 0.00 | 0.00 | 71 | 1007.3 |
| 20260508143932 | 45 | 54 | 2.6 | 6.1 | 0.00 | 0.00 | 0.00 | 71 | 1007.4 |
| 20260508143432 | 45 | 51 | 3.5 | 6.1 | 0.00 | 0.00 | 0.00 | 71 | 1007.4 |
| 20260508142933 | 45 | 86 | 4.3 | 6.1 | 0.00 | 0.00 | 0.00 | 71 | 1007.3 |
| 20260508142431 | 45 | 76 | 5.2 | 6.1 | 0.00 | 0.00 | 0.00 | 70 | 1007.4 |
| 20260508141933 | 46 | 90 | 3.5 | 6.1 | 0.00 | 0.00 | 0.00 | 70 | 1007.5 |
| 20260508141431 | 46 | 76 | 4.3 | 6.1 | 0.00 | 0.00 | 0.00 | 68 | 1007.5 |
| 20260508140931 | 47 | 109 | 4.3 | 5.2 | 0.00 | 0.00 | 0.00 | 68 | 1007.5 |
| 20260508140656 | 47 | 65 | 1.7 | 6.1 | 0.00 | 0.00 | 0.00 | 67 | 1007.5 |
| 20260508135931 | 47 | 56 | 3.5 | 6.1 | 0.00 | 0.00 | 0.00 | 67 | 1007.5 |
| 20260508135430 | 47 | 45 | 3.5 | 6.1 | 0.00 | 0.00 | 0.00 | 66 | 1007.6 |
| 20260508134929 | 47 | 30 | 2.6 | 6.1 | 0.00 | 0.00 | 0.00 | 65 | 1007.6 |
| 20260508134429 | 47 | 281 | 1.7 | 6.1 | 0.00 | 0.00 | 0.00 | 65 | 1007.6 |
| 20260508133929 | 47 | 299 | 1.7 | 5.2 | 0.00 | 0.00 | 0.00 | 66 | 1007.7 |
| 20260508133700 | 47 | 307 | 1.7 | 9.6 | 0.00 | 0.00 | 0.00 | 67 | 1007.7 |
| 20260508132926 | 47 | 254 | 2.6 | 10.4 | 0.00 | 0.00 | 0.00 | 65 | 1007.7 |
| 20260508132427 | 47 | 259 | 1.7 | 11.3 | 0.00 | 0.00 | 0.00 | 65 | 1007.8 |
| 20260508131928 | 47 | 278 | 6.1 | 11.3 | 0.00 | 0.00 | 0.00 | 67 | 1007.8 |
| 20260508131425 | 47 | 283 | 4.3 | 10.4 | 0.00 | 0.00 | 0.00 | 67 | 1007.8 |
| 20260508130924 | 47 | 257 | 5.2 | 8.7 | 0.00 | 0.00 | 0.00 | 69 | 1007.8 |
| 20260508130424 | 46 | 271 | 1.7 | 4.3 | 0.00 | 0.00 | 0.00 | 69 | 1007.7 |
| 20260508125923 | 45 | 286 | 1.7 | 4.3 | 0.00 | 0.00 | 0.00 | 69 | 1007.8 |
| 20260508125422 | 44 | 250 | 0.9 | 5.2 | 0.00 | 0.00 | 0.00 | 72 | 1007.9 |
| 20260508124921 | 44 | 264 | 2.6 | 5.2 | 0.00 | 0.00 | 0.00 | 71 | 1007.9 |
| 20260508124421 | 43 | 258 | 2.6 | 5.2 | 0.00 | 0.00 | 0.00 | 72 | 1008.0 |
| 20260508123924 | 42 | 247 | 1.7 | 4.3 | 0.00 | 0.00 | 0.00 | 72 | 1008.1 |
| 20260508123422 | 42 | 238 | 2.6 | 5.2 | 0.00 | 0.00 | 0.00 | 72 | 1008.0 |
| 20260508122920 | 41 | 292 | 2.6 | 5.2 | 0.00 | 0.00 | 0.00 | 74 | 1008.1 |
| 20260508122420 | 40 | 264 | 2.6 | 4.3 | 0.00 | 0.00 | 0.00 | 74 | 1008.0 |
| 20260508121918 | 40 | 271 | 2.6 | 5.2 | 0.00 | 0.00 | 0.00 | 75 | 1008.0 |
| 20260508121417 | 40 | 251 | 1.7 | 5.2 | 0.00 | 0.00 | 0.00 | 74 | 1008.0 |
| 20260508120415 | 39 | 288 | 3.5 | 6.1 | 0.00 | 0.00 | 0.00 | 75 | 1008.1 |
| 20260508115914 | 39 | 278 | 1.7 | 3.5 | 0.00 | 0.00 | 0.00 | 75 | 1008.0 |
| 20260508115416 | 39 | 299 | 0.9 | 2.6 | 0.00 | 0.00 | 0.00 | 76 | 1008.0 |
| 20260508114915 | 39 | 285 | 0.9 | 2.6 | 0.00 | 0.00 | 0.00 | 76 | 1008.0 |
| 20260508114415 | 38 | 289 | 1.7 | 3.5 | 0.00 | 0.00 | 0.00 | 76 | 1008.0 |
| 20260508113913 | 38 | 278 | 1.7 | 5.2 | 0.00 | 0.00 | 0.00 | 76 | 1007.9 |
| 20260508113413 | 38 | 248 | 2.6 | 5.2 | 0.00 | 0.00 | 0.00 | 76 | 1007.9 |
| 20260508112911 | 38 | 279 | 3.5 | 4.3 | 0.00 | 0.00 | 0.00 | 77 | 1007.8 |
| 20260508112411 | 37 | 282 | 1.7 | 3.5 | 0.00 | 0.00 | 0.00 | 77 | 1007.7 |
| 20260508111909 | 37 | 282 | 1.7 | 5.2 | 0.00 | 0.00 | 0.00 | 77 | 1007.7 |
| 20260508111410 | 37 | 268 | 1.7 | 5.2 | 0.00 | 0.00 | 0.00 | 78 | 1007.7 |
| 20260508110909 | 36 | 274 | 3.5 | 5.2 | 0.00 | 0.00 | 0.00 | 79 | 1007.7 |
| 20260508110408 | 35 | 233 | 2.6 | 4.3 | 0.00 | 0.00 | 0.00 | 79 | 1007.6 |
| 20260508105902 | 35 | 248 | 2.6 | 4.3 | 0.00 | 0.00 | 0.00 | 79 | 1007.7 |
| 20260508105403 | 35 | 252 | 2.6 | 4.3 | 0.00 | 0.00 | 0.00 | 79 | 1007.6 |
| 20260508104902 | 35 | 264 | 2.6 | 5.2 | 0.00 | 0.00 | 0.00 | 78 | 1007.6 |
| 20260508104403 | 35 | 244 | 2.6 | 5.2 | 0.00 | 0.00 | 0.00 | 78 | 1007.6 |
| 20260508103902 | 35 | 250 | 3.5 | 4.3 | 0.00 | 0.00 | 0.00 | 78 | 1007.6 |
| 20260508103645 | 35 | 251 | 3.5 | 5.2 | 0.00 | 0.00 | 0.00 | 77 | 1007.6 |
| 20260508102902 | 35 | 268 | 3.5 | 5.2 | 0.00 | 0.00 | 0.00 | 77 | 1007.5 |
| 20260508102403 | 35 | 250 | 2.6 | 5.2 | 0.00 | 0.00 | 0.00 | 77 | 1007.5 |
| 20260508101904 | 35 | 240 | 3.5 | 4.3 | 0.00 | 0.00 | 0.00 | 76 | 1007.5 |
| 20260508101403 | 35 | 230 | 2.6 | 4.3 | 0.00 | 0.00 | 0.00 | 76 | 1007.4 |
| 20260508100903 | 35 | 247 | 1.7 | 4.3 | 0.00 | 0.00 | 0.00 | 76 | 1007.4 |
| 20260508100403 | 36 | 250 | 1.7 | 6.1 | 0.00 | 0.00 | 0.00 | 76 | 1007.4 |
| 20260508095901 | 36 | 250 | 3.5 | 6.1 | 0.00 | 0.00 | 0.00 | 76 | 1007.5 |
| 20260508095402 | 36 | 240 | 3.5 | 6.1 | 0.00 | 0.00 | 0.00 | 76 | 1007.4 |
| 20260508094902 | 35 | 267 | 4.3 | 6.1 | 0.00 | 0.00 | 0.00 | 77 | 1007.5 |
| 20260508094400 | 35 | 244 | 4.3 | 6.1 | 0.00 | 0.00 | 0.00 | 77 | 1007.4 |
| 20260508093900 | 35 | 257 | 3.5 | 6.1 | 0.00 | 0.00 | 0.00 | 77 | 1007.5 |
| 20260508093400 | 35 | 234 | 3.5 | 6.1 | 0.00 | 0.00 | 0.00 | 77 | 1007.5 |
| 20260508092900 | 35 | 240 | 3.5 | 6.1 | 0.00 | 0.00 | 0.00 | 77 | 1007.6 |
| 20260508092400 | 35 | 231 | 3.5 | 6.1 | 0.00 | 0.00 | 0.00 | 77 | 1007.5 |
| 20260508091900 | 35 | 220 | 3.5 | 6.1 | 0.00 | 0.00 | 0.00 | 77 | 1007.6 |
| 20260508091350 | 35 | 244 | 2.6 | 6.1 | 0.00 | 0.00 | 0.00 | 77 | 1007.6 |
| 20260508091118 | 35 | 237 | 3.5 | 5.2 | 0.00 | 0.00 | 0.00 | 77 | 1007.7 |
| 20260508090350 | 35 | 234 | 2.6 | 5.2 | 0.00 | 0.00 | 0.00 | 77 | 1007.7 |
| 20260508090106 | 35 | 230 | 2.6 | 6.1 | 0.00 | 0.00 | 0.00 | 78 | 1007.7 |
| 20260508085347 | 35 | 254 | 3.5 | 6.1 | 0.00 | 0.00 | 0.00 | 78 | 1007.8 |
| 20260508084847 | 35 | 226 | 3.5 | 6.1 | 0.00 | 0.00 | 0.00 | 78 | 1007.8 |
| 20260508084346 | 35 | 231 | 3.5 | 6.1 | 0.00 | 0.00 | 0.00 | 79 | 1007.8 |
| 20260508083844 | 35 | 237 | 3.5 | 6.1 | 0.00 | 0.00 | 0.00 | 79 | 1007.8 |
| 20260508083344 | 35 | 212 | 4.3 | 6.1 | 0.00 | 0.00 | 0.00 | 80 | 1007.8 |
| 20260508082846 | 35 | 217 | 3.5 | 7.8 | 0.00 | 0.00 | 0.00 | 80 | 1007.8 |
| 20260508082344 | 34 | 240 | 4.3 | 7.8 | 0.00 | 0.00 | 0.00 | 81 | 1007.9 |
| 20260508081844 | 34 | 237 | 3.5 | 6.1 | 0.00 | 0.00 | 0.00 | 82 | 1007.9 |
| 20260508081339 | 34 | 245 | 3.5 | 6.1 | 0.00 | 0.00 | 0.00 | 82 | 1007.9 |
| 20260508080839 | 34 | 231 | 2.6 | 5.2 | 0.00 | 0.00 | 0.00 | 83 | 1008.0 |
| 20260508080336 | 34 | 241 | 3.5 | 5.2 | 0.00 | 0.00 | 0.00 | 83 | 1007.9 |
| 20260508075839 | 34 | 231 | 3.5 | 5.2 | 0.00 | 0.00 | 0.00 | 84 | 1007.9 |
| 20260508075600 | 34 | 255 | 2.6 | 4.3 | 0.00 | 0.00 | 0.00 | 84 | 1008.0 |
| 20260508074835 | 34 | 231 | 2.6 | 4.3 | 0.00 | 0.00 | 0.00 | 84 | 1008.1 |
| 20260508074335 | 34 | 237 | 3.5 | 4.3 | 0.00 | 0.00 | 0.00 | 85 | 1008.1 |
| 20260508073836 | 34 | 258 | 2.6 | 5.2 | 0.00 | 0.00 | 0.00 | 85 | 1008.1 |
| 20260508073335 | 34 | 254 | 2.6 | 5.2 | 0.00 | 0.00 | 0.00 | 86 | 1008.2 |
| 20260508072835 | 34 | 251 | 2.6 | 4.3 | 0.00 | 0.00 | 0.00 | 86 | 1008.2 |
| 20260508072335 | 34 | 237 | 2.6 | 4.3 | 0.00 | 0.00 | 0.00 | 86 | 1008.2 |
| 20260508071835 | 34 | 231 | 2.6 | 4.3 | 0.00 | 0.00 | 0.00 | 86 | 1008.2 |
| 20260508071333 | 34 | 227 | 2.6 | 3.5 | 0.00 | 0.00 | 0.00 | 86 | 1008.2 |
| 20260508070332 | 34 | 217 | 1.7 | 3.5 | 0.00 | 0.00 | 0.00 | 86 | 1008.2 |
| 20260508065832 | 34 | 210 | 1.7 | 3.5 | 0.00 | 0.00 | 0.00 | 86 | 1008.2 |
| 20260508065331 | 34 | 220 | 1.7 | 2.6 | 0.00 | 0.00 | 0.00 | 85 | 1008.3 |
| 20260508064833 | 34 | 212 | 1.7 | 2.6 | 0.00 | 0.00 | 0.00 | 85 | 1008.3 |
| 20260508064600 | 34 | 220 | 1.7 | 2.6 | 0.00 | 0.00 | 0.00 | 85 | 1008.4 |
| 20260508063831 | 34 | 214 | 1.7 | 3.5 | 0.00 | 0.00 | 0.00 | 84 | 1008.5 |
| 20260508063330 | 35 | 223 | 1.7 | 3.5 | 0.00 | 0.00 | 0.00 | 84 | 1008.6 |
| 20260508062831 | 35 | 210 | 2.6 | 2.6 | 0.00 | 0.00 | 0.00 | 84 | 1008.5 |
| 20260508062331 | 35 | 217 | 1.7 | 3.5 | 0.00 | 0.00 | 0.00 | 84 | 1008.6 |
| 20260508061831 | 35 | 219 | 1.7 | 3.5 | 0.00 | 0.00 | 0.00 | 83 | 1008.7 |
| 20260508061331 | 35 | 220 | 2.6 | 3.5 | 0.00 | 0.00 | 0.00 | 83 | 1008.7 |
| 20260508060830 | 36 | 219 | 2.6 | 3.5 | 0.00 | 0.00 | 0.00 | 83 | 1008.7 |
| 20260508060331 | 36 | 220 | 1.7 | 2.6 | 0.00 | 0.00 | 0.00 | 83 | 1008.7 |
| 20260508055830 | 36 | 217 | 1.7 | 3.5 | 0.00 | 0.00 | 0.00 | 82 | 1008.8 |
| 20260508055329 | 36 | 216 | 1.7 | 3.5 | 0.00 | 0.00 | 0.00 | 82 | 1008.9 |
| 20260508055105 | 36 | 221 | 1.7 | 2.6 | 0.00 | 0.00 | 0.00 | 83 | 1009.0 |
| 20260508054330 | 36 | 214 | 1.7 | 3.5 | 0.00 | 0.00 | 0.00 | 83 | 1009.0 |
| 20260508054054 | 36 | 209 | 1.7 | 4.3 | 0.00 | 0.00 | 0.00 | 83 | 1009.0 |
| 20260508053328 | 36 | 221 | 2.6 | 4.3 | 0.00 | 0.00 | 0.00 | 83 | 1009.0 |
| 20260508052828 | 36 | 241 | 1.7 | 3.5 | 0.00 | 0.00 | 0.00 | 83 | 1009.0 |
| 20260508052328 | 36 | 226 | 2.6 | 3.5 | 0.00 | 0.00 | 0.00 | 82 | 1009.0 |
| 20260508051830 | 36 | 238 | 2.6 | 3.5 | 0.00 | 0.00 | 0.00 | 82 | 1009.0 |
| 20260508051325 | 36 | 226 | 1.7 | 3.5 | 0.00 | 0.00 | 0.00 | 81 | 1009.0 |
| 20260508050825 | 36 | 220 | 2.6 | 3.5 | 0.00 | 0.00 | 0.00 | 81 | 1009.1 |
| 20260508050326 | 37 | 244 | 1.7 | 2.6 | 0.00 | 0.00 | 0.00 | 80 | 1009.1 |
| 20260508050044 | 37 | 233 | 1.7 | 3.5 | 0.00 | 0.00 | 0.00 | 80 | 1009.2 |
| 20260508045322 | 37 | 240 | 1.7 | 3.5 | 0.00 | 0.00 | 0.00 | 79 | 1009.2 |
| 20260508045051 | 37 | 243 | 2.6 | 3.5 | 0.00 | 0.00 | 0.00 | 78 | 1009.2 |
| 20260508044319 | 38 | 237 | 1.7 | 3.5 | 0.00 | 0.00 | 0.00 | 77 | 1009.1 |
| 20260508044050 | 38 | 261 | 1.7 | 2.6 | 0.00 | 0.00 | 0.00 | 77 | 1009.1 |
| 20260508043317 | 38 | 241 | 0.9 | 2.6 | 0.00 | 0.00 | 0.00 | 76 | 1009.0 |
| 20260508042817 | 39 | 258 | 1.7 | 2.6 | 0.00 | 0.00 | 0.00 | 76 | 1009.1 |
| 20260508042314 | 39 | 275 | 0.0 | 5.2 | 0.00 | 0.00 | 0.00 | 75 | 1009.0 |
| 20260508041816 | 40 | 199 | 1.7 | 5.2 | 0.00 | 0.00 | 0.00 | 74 | 1009.0 |
| 20260508041312 | 40 | 175 | 2.6 | 5.2 | 0.00 | 0.00 | 0.00 | 74 | 1009.0 |
| 20260508040810 | 40 | 186 | 3.5 | 5.2 | 0.00 | 0.00 | 0.00 | 73 | 1009.0 |
| 20260508040311 | 40 | 200 | 2.6 | 5.2 | 0.00 | 0.00 | 0.00 | 72 | 1009.0 |
| 20260508035808 | 40 | 199 | 1.7 | 4.3 | 0.00 | 0.00 | 0.00 | 72 | 1009.0 |
| 20260508035535 | 40 | 193 | 1.7 | 4.3 | 0.00 | 0.00 | 0.00 | 72 | 1009.1 |
| 20260508034807 | 40 | 214 | 1.7 | 4.3 | 0.00 | 0.00 | 0.00 | 72 | 1009.0 |
| 20260508034309 | 40 | 216 | 2.6 | 4.3 | 0.00 | 0.00 | 0.00 | 73 | 1008.9 |
| 20260508033805 | 40 | 228 | 0.9 | 4.3 | 0.00 | 0.00 | 0.00 | 73 | 1008.9 |
| 20260508033306 | 40 | 145 | 0.9 | 4.3 | 0.00 | 0.00 | 0.00 | 74 | 1009.0 |
| 20260508032806 | 40 | 171 | 0.9 | 5.2 | 0.00 | 0.00 | 0.00 | 74 | 1008.9 |
| 20260508032306 | 40 | 186 | 1.7 | 5.2 | 0.00 | 0.00 | 0.00 | 76 | 1008.9 |
| 20260508031804 | 40 | 199 | 2.6 | 3.5 | 0.00 | 0.00 | 0.00 | 78 | 1008.9 |
| 20260508031552 | 40 | 199 | 1.7 | 3.5 | 0.00 | 0.00 | 0.00 | 78 | 1009.0 |
| 20260508030842 | 40 | 192 | 1.7 | 3.5 | 0.00 | 0.00 | 0.00 | 78 | 1009.1 |
| 20260508030334 | 40 | 175 | 1.7 | 3.5 | 0.00 | 0.00 | 0.00 | 77 | 1009.2 |
| 20260508025800 | 40 | 193 | 1.7 | 3.5 | 0.00 | 0.00 | 0.00 | 77 | 1009.4 |
| 20260508025525 | 40 | 188 | 1.7 | 2.6 | 0.00 | 0.00 | 0.00 | 77 | 1009.4 |
| 20260508024759 | 40 | 197 | 0.9 | 1.7 | 0.00 | 0.00 | 0.00 | 77 | 1009.4 |
| 20260508024300 | 40 | 314 | 0.9 | 1.7 | 0.00 | 0.00 | 0.00 | 77 | 1009.5 |
| 20260508023758 | 40 | 316 | 0.9 | 2.6 | 0.00 | 0.00 | 0.00 | 77 | 1009.6 |
| 20260508023257 | 40 | 178 | 1.7 | 2.6 | 0.00 | 0.00 | 0.00 | 77 | 1009.5 |
| 20260508022800 | 40 | 152 | 0.9 | 1.7 | 0.00 | 0.00 | 0.00 | 77 | 1009.6 |
| 20260508022256 | 40 | 154 | 0.0 | 1.7 | 0.00 | 0.00 | 0.00 | 76 | 1009.6 |
| 20260508021756 | 40 | 152 | 0.0 | 0.0 | 0.00 | 0.00 | 0.00 | 76 | 1009.7 |
| 20260508021256 | 40 | 152 | 0.0 | 0.0 | 0.00 | 0.00 | 0.00 | 76 | 1009.7 |
| 20260508020756 | 40 | 152 | 0.0 | 0.9 | 0.00 | 0.00 | 0.00 | 76 | 1009.6 |
| 20260508020255 | 40 | 152 | 0.0 | 0.9 | 0.00 | 0.00 | 0.00 | 76 | 1009.5 |
| 20260508015750 | 40 | 144 | 0.0 | 2.6 | 0.00 | 0.00 | 0.00 | 75 | 1009.4 |
| 20260508015246 | 40 | 142 | 0.9 | 2.6 | 0.00 | 0.00 | 0.00 | 76 | 1009.4 |
| 20260508014749 | 40 | 76 | 0.9 | 2.6 | 0.00 | 0.00 | 0.00 | 76 | 1009.4 |
| 20260508014017 | 41 | 116 | 0.0 | 1.7 | 0.00 | 0.00 | 0.00 | 77 | 1009.4 |
| 20260508013244 | 41 | 117 | 0.0 | 1.7 | 0.00 | 0.00 | 0.00 | 77 | 1009.2 |
| 20260508012740 | 41 | 95 | 0.0 | 0.9 | 0.00 | 0.00 | 0.00 | 77 | 1009.4 |
| 20260508012239 | 41 | 95 | 0.0 | 0.9 | 0.00 | 0.00 | 0.00 | 76 | 1009.2 |
| 20260508011734 | 41 | 87 | 0.0 | 1.7 | 0.00 | 0.00 | 0.00 | 76 | 1009.4 |
| 20260508011234 | 41 | 107 | 0.9 | 2.6 | 0.00 | 0.00 | 0.00 | 76 | 1009.1 |
| 20260508010735 | 42 | 80 | 0.9 | 2.6 | 0.00 | 0.00 | 0.00 | 76 | 1009.1 |
| 20260508010235 | 42 | 95 | 0.9 | 2.6 | 0.00 | 0.00 | 0.00 | 76 | 1009.0 |
| 20260508005731 | 42 | 103 | 0.0 | 2.6 | 0.00 | 0.00 | 0.00 | 76 | 1009.0 |
| 20260508005231 | 42 | 85 | 1.7 | 3.5 | 0.00 | 0.00 | 0.00 | 76 | 1009.0 |
| 20260508004732 | 42 | 100 | 1.7 | 3.5 | 0.00 | 0.00 | 0.00 | 77 | 1009.0 |
| 20260508004504 | 42 | 95 | 0.9 | 3.5 | 0.00 | 0.00 | 0.00 | 77 | 1008.9 |
| 20260508003731 | 42 | 131 | 1.7 | 4.3 | 0.00 | 0.00 | 0.00 | 77 | 1008.9 |
| 20260508003231 | 42 | 69 | 0.9 | 4.3 | 0.00 | 0.00 | 0.00 | 75 | 1008.8 |
| 20260508002731 | 42 | 102 | 2.6 | 4.3 | 0.00 | 0.00 | 0.00 | 74 | 1008.8 |
| 20260508002229 | 42 | 72 | 0.9 | 4.3 | 0.00 | 0.00 | 0.00 | 74 | 1008.8 |
| 20260508001729 | 42 | 102 | 1.7 | 4.3 | 0.00 | 0.00 | 0.00 | 74 | 1008.8 |
| 20260508001303 | 42 | 89 | 2.6 | 4.3 | 0.00 | 0.00 | 0.00 | 73 | 1008.7 |
| 20260508000825 | 42 | 102 | 0.9 | 3.5 | 0.00 | 0.00 | 0.00 | 72 | 1008.7 |
| 20260508000227 | 42 | 110 | 1.7 | 4.3 | 0.00 | 0.00 | 0.00 | 72 | 1008.8 |
| 20260507235712 | 42 | 134 | 1.7 | 4.3 | 0.00 | 0.00 | 0.00 | 72 | 1008.7 |
| 20260507235213 | 42 | 99 | 1.7 | 4.3 | 0.00 | 0.00 | 0.00 | 72 | 1008.6 |
| 20260507234941 | 42 | 114 | 3.5 | 4.3 | 0.00 | 0.00 | 0.00 | 74 | 1008.7 |
| 20260507234214 | 42 | 90 | 1.7 | 4.3 | 0.00 | 0.00 | 0.00 | 75 | 1008.7 |
| 20260507233713 | 42 | 73 | 0.9 | 4.3 | 0.00 | 0.00 | 0.00 | 75 | 1008.8 |
| 20260507233442 | 42 | 107 | 2.6 | 5.2 | 0.00 | 0.00 | 0.00 | 75 | 1008.7 |
| 20260507232713 | 42 | 104 | 1.7 | 5.2 | 0.00 | 0.00 | 0.00 | 76 | 1008.7 |
| 20260507232214 | 42 | 118 | 3.5 | 5.2 | 0.00 | 0.00 | 0.00 | 77 | 1008.6 |
| 20260507231713 | 42 | 87 | 1.7 | 3.5 | 0.00 | 0.00 | 0.00 | 78 | 1008.7 |
| 20260507231212 | 42 | 135 | 1.7 | 3.5 | 0.00 | 0.00 | 0.00 | 79 | 1008.7 |
| 20260507230711 | 41 | 96 | 1.7 | 3.5 | 0.00 | 0.00 | 0.00 | 79 | 1008.7 |
| 20260507230215 | 41 | 109 | 1.7 | 3.5 | 0.00 | 0.00 | 0.00 | 80 | 1008.7 |
| 20260507225703 | 41 | 89 | 1.7 | 4.3 | 0.00 | 0.00 | 0.00 | 81 | 1008.7 |
| 20260507225202 | 41 | 120 | 1.7 | 4.3 | 0.00 | 0.00 | 0.00 | 80 | 1008.7 |
| 20260507224703 | 41 | 103 | 2.6 | 3.5 | 0.00 | 0.00 | 0.00 | 79 | 1008.8 |
| 20260507224202 | 42 | 80 | 1.7 | 5.2 | 0.00 | 0.00 | 0.00 | 77 | 1008.8 |
| 20260507223659 | 42 | 79 | 2.6 | 5.2 | 0.00 | 0.00 | 0.00 | 75 | 1008.7 |
| 20260507223158 | 43 | 61 | 3.5 | 6.1 | 0.00 | 0.00 | 0.00 | 72 | 1008.6 |
| 20260507222653 | 43 | 69 | 4.3 | 6.1 | 0.00 | 0.00 | 0.00 | 70 | 1008.6 |
| 20260507222150 | 43 | 71 | 3.5 | 6.1 | 0.00 | 0.00 | 0.00 | 68 | 1008.6 |
| 20260507221651 | 43 | 62 | 3.5 | 10.4 | 0.00 | 0.00 | 0.00 | 68 | 1008.5 |
| 20260507221428 | 43 | 56 | 6.1 | 10.4 | 0.00 | 0.00 | 0.00 | 67 | 1008.6 |
| 20260507220652 | 44 | 55 | 7.0 | 9.6 | 0.00 | 0.00 | 0.00 | 66 | 1008.5 |
| 20260507220155 | 46 | 59 | 1.7 | 9.6 | 0.00 | 0.00 | 0.00 | 61 | 1008.6 |
| 20260507215605 | 47 | 257 | 5.2 | 10.4 | 0.00 | 0.00 | 0.00 | 54 | 1008.4 |
| 20260507215333 | 47 | 247 | 3.5 | 10.4 | 0.00 | 0.00 | 0.00 | 54 | 1008.4 |
| 20260507214605 | 47 | 262 | 4.3 | 9.6 | 0.00 | 0.00 | 0.00 | 55 | 1008.3 |
| 20260507214104 | 46 | 247 | 4.3 | 9.6 | 0.00 | 0.00 | 0.00 | 55 | 1008.3 |
| 20260507213604 | 46 | 231 | 3.5 | 6.1 | 0.00 | 0.00 | 0.00 | 60 | 1008.4 |
| 20260507213108 | 46 | 165 | 1.7 | 3.5 | 0.00 | 0.00 | 0.00 | 61 | 1008.4 |
| 20260507212558 | 45 | 202 | 1.7 | 4.3 | 0.00 | 0.00 | 0.00 | 64 | 1008.4 |
| 20260507212056 | 45 | 147 | 1.7 | 4.3 | 0.00 | 0.00 | 0.00 | 64 | 1008.3 |
| 20260507211556 | 45 | 137 | 0.0 | 5.2 | 0.00 | 0.00 | 0.00 | 66 | 1008.4 |
| 20260507211056 | 44 | 124 | 3.5 | 5.2 | 0.00 | 0.00 | 0.00 | 65 | 1008.4 |
| 20260507210555 | 44 | 97 | 1.7 | 5.2 | 0.00 | 0.00 | 0.00 | 67 | 1008.6 |
| 20260507210329 | 44 | 86 | 3.5 | 5.2 | 0.00 | 0.00 | 0.00 | 69 | 1008.5 |
| 20260507205505 | 44 | 96 | 3.5 | 5.2 | 0.00 | 0.00 | 0.00 | 69 | 1008.5 |
| 20260507205005 | 44 | 116 | 4.3 | 6.1 | 0.00 | 0.00 | 0.00 | 71 | 1008.6 |
| 20260507204505 | 44 | 141 | 3.5 | 6.1 | 0.00 | 0.00 | 0.00 | 71 | 1008.6 |
| 20260507204236 | 44 | 85 | 3.5 | 5.2 | 0.00 | 0.00 | 0.00 | 72 | 1008.7 |
| 20260507203504 | 43 | 85 | 0.9 | 6.1 | 0.00 | 0.00 | 0.00 | 72 | 1008.7 |
| 20260507203006 | 43 | 82 | 5.2 | 6.1 | 0.00 | 0.00 | 0.00 | 73 | 1008.6 |
| 20260507202503 | 43 | 86 | 3.5 | 4.3 | 0.00 | 0.00 | 0.00 | 72 | 1008.8 |
| 20260507202002 | 44 | 75 | 3.5 | 4.3 | 0.00 | 0.00 | 0.00 | 72 | 1008.8 |
| 20260507201503 | 44 | 89 | 1.7 | 4.3 | 0.00 | 0.00 | 0.00 | 73 | 1008.8 |
| 20260507201112 | 44 | 61 | 3.5 | 6.1 | 0.00 | 0.00 | 0.00 | 72 | 1008.8 |
| 20260507200743 | 44 | 80 | 3.5 | 6.1 | 0.00 | 0.00 | 0.00 | 74 | 1009.0 |
| 20260507200723 | 44 | 59 | 3.5 | 6.1 | 0.00 | 0.00 | 0.00 | 72 | 1008.9 |
| 20260507194956 | 43 | 63 | 3.5 | 4.3 | 0.00 | 0.00 | 0.00 | 73 | 1008.9 |
| 20260507194457 | 43 | 111 | 1.7 | 4.3 | 0.00 | 0.00 | 0.00 | 73 | 1009.0 |
| 20260507193955 | 43 | 109 | 2.6 | 4.3 | 0.00 | 0.00 | 0.00 | 73 | 1008.9 |
| 20260507193454 | 43 | 133 | 1.7 | 3.5 | 0.00 | 0.00 | 0.00 | 73 | 1009.0 |
| 20260507192950 | 42 | 24 | 2.6 | 3.5 | 0.00 | 0.00 | 0.00 | 73 | 1009.1 |
| 20260507192451 | 42 | 100 | 1.7 | 3.5 | 0.00 | 0.00 | 0.00 | 73 | 1009.2 |
| 20260507191448 | 42 | 100 | 0.9 | 3.5 | 0.00 | 0.00 | 0.00 | 75 | 1009.5 |
| 20260507190939 | 42 | 75 | 0.9 | 1.7 | 0.00 | 0.00 | 0.00 | 76 | 1009.6 |
| 20260507190441 | 42 | 78 | 0.9 | 2.6 | 0.00 | 0.00 | 0.00 | 77 | 1009.5 |
| 20260507185940 | 42 | 78 | 0.9 | 3.5 | 0.00 | 0.00 | 0.00 | 76 | 1009.7 |
| 20260507185438 | 42 | 37 | 0.9 | 3.5 | 0.00 | 0.00 | 0.00 | 78 | 1009.7 |
| 20260507184940 | 41 | 44 | 1.7 | 3.5 | 0.00 | 0.00 | 0.00 | 79 | 1009.6 |
| 20260507184437 | 41 | 66 | 1.7 | 3.5 | 0.00 | 0.00 | 0.00 | 78 | 1009.6 |
| 20260507183936 | 41 | 93 | 0.9 | 3.5 | 0.00 | 0.00 | 0.00 | 78 | 1009.6 |
| 20260507183436 | 41 | 47 | 0.9 | 3.5 | 0.00 | 0.00 | 0.00 | 78 | 1009.7 |
| 20260507183200 | 41 | 25 | 1.7 | 4.3 | 0.00 | 0.00 | 0.00 | 78 | 1009.8 |
| 20260507182436 | 41 | 62 | 1.7 | 5.2 | 0.00 | 0.00 | 0.00 | 77 | 1009.7 |
| 20260507182208 | 41 | 37 | 1.7 | 5.2 | 0.00 | 0.00 | 0.00 | 76 | 1009.8 |
| 20260507181434 | 42 | 18 | 1.7 | 4.3 | 0.00 | 0.00 | 0.00 | 76 | 1009.8 |
| 20260507180935 | 42 | 49 | 1.7 | 3.5 | 0.00 | 0.00 | 0.00 | 76 | 1009.9 |
| 20260507180700 | 42 | 28 | 1.7 | 5.2 | 0.00 | 0.00 | 0.00 | 75 | 1009.9 |
| 20260507175932 | 42 | 63 | 2.6 | 5.2 | 0.00 | 0.00 | 0.00 | 74 | 1009.9 |
| 20260507175431 | 42 | 34 | 1.7 | 4.3 | 0.00 | 0.00 | 0.00 | 75 | 1009.9 |
| 20260507174931 | 42 | 62 | 0.9 | 3.5 | 0.00 | 0.00 | 0.00 | 76 | 1010.0 |
| 20260507174430 | 42 | 65 | 1.7 | 3.5 | 0.00 | 0.00 | 0.00 | 75 | 1009.9 |
| 20260507173932 | 42 | 353 | 0.9 | 3.5 | 0.00 | 0.00 | 0.00 | 76 | 1010.0 |
| 20260507173431 | 42 | 8 | 2.6 | 4.3 | 0.00 | 0.00 | 0.00 | 76 | 1010.1 |
| 20260507172931 | 42 | 82 | 1.7 | 4.3 | 0.00 | 0.00 | 0.00 | 77 | 1009.9 |
| 20260507172431 | 42 | 343 | 0.9 | 4.3 | 0.00 | 0.00 | 0.00 | 76 | 1010.1 |
| 20260507171934 | 41 | 283 | 0.0 | 4.3 | 0.00 | 0.00 | 0.00 | 74 | 1010.2 |
| 20260507171428 | 42 | 79 | 2.6 | 4.3 | 0.00 | 0.00 | 0.00 | 72 | 1010.3 |
| 20260507170933 | 42 | 330 | 0.0 | 2.6 | 0.00 | 0.00 | 0.00 | 72 | 1010.3 |
| 20260507170427 | 42 | 254 | 0.9 | 4.3 | 0.00 | 0.00 | 0.00 | 71 | 1010.1 |
| 20260507165929 | 43 | 35 | 1.7 | 7.8 | 0.00 | 0.00 | 0.00 | 70 | 1010.1 |
| 20260507165425 | 43 | 8 | 2.6 | 7.8 | 0.00 | 0.00 | 0.00 | 70 | 1010.2 |
| 20260507165152 | 43 | 58 | 0.9 | 6.1 | 0.00 | 0.00 | 0.00 | 70 | 1010.1 |
| 20260507164422 | 43 | 24 | 3.5 | 6.1 | 0.00 | 0.00 | 0.00 | 69 | 1010.3 |
| 20260507163415 | 44 | 5 | 0.9 | 5.2 | 0.00 | 0.00 | 0.00 | 68 | 1010.2 |
| 20260507162912 | 44 | 31 | 2.6 | 7.8 | 0.00 | 0.00 | 0.00 | 66 | 1010.2 |
| 20260507162412 | 44 | 25 | 1.7 | 7.8 | 0.00 | 0.00 | 0.00 | 65 | 1010.2 |
| 20260507161410 | 45 | 2 | 3.5 | 11.3 | 0.00 | 0.00 | 0.00 | 59 | 1010.3 |
| 20260507160909 | 45 | 337 | 1.7 | 8.7 | 0.00 | 0.00 | 0.00 | 58 | 1010.4 |
| 20260507160640 | 45 | 331 | 3.5 | 9.6 | 0.00 | 0.00 | 0.00 | 58 | 1010.4 |
| 20260507155908 | 45 | 334 | 4.3 | 9.6 | 0.00 | 0.00 | 0.00 | 59 | 1010.4 |
| 20260507155411 | 46 | 327 | 0.9 | 10.4 | 0.00 | 0.00 | 0.00 | 57 | 1010.4 |
| 20260507155131 | 46 | 286 | 2.6 | 10.4 | 0.00 | 0.00 | 0.00 | 58 | 1010.5 |
| 20260507154405 | 46 | 262 | 2.6 | 9.6 | 0.00 | 0.00 | 0.00 | 59 | 1010.4 |
| 20260507153902 | 45 | 279 | 3.5 | 8.7 | 0.00 | 0.00 | 0.00 | 57 | 1010.5 |
| 20260507153631 | 45 | 299 | 3.5 | 7.8 | 0.00 | 0.00 | 0.00 | 59 | 1010.4 |
| 20260507152902 | 44 | 314 | 3.5 | 7.8 | 0.00 | 0.00 | 0.00 | 59 | 1010.5 |
| 20260507152401 | 44 | 298 | 3.5 | 11.3 | 0.00 | 0.00 | 0.00 | 62 | 1010.6 |
| 20260507151859 | 44 | 149 | 0.9 | 11.3 | 0.00 | 0.00 | 0.00 | 64 | 1010.6 |
| 20260507151132 | 43 | 25 | 2.6 | 3.5 | 0.00 | 0.00 | 0.00 | 67 | 1010.7 |
| 20260507150400 | 43 | 7 | 0.9 | 4.3 | 0.00 | 0.00 | 0.00 | 66 | 1010.6 |
| 20260507145858 | 44 | 9 | 1.7 | 5.2 | 0.00 | 0.00 | 0.00 | 68 | 1010.6 |
| 20260507145358 | 44 | 25 | 2.6 | 5.2 | 0.00 | 0.00 | 0.00 | 68 | 1010.6 |